Weather History for Bryce Canyon, UT

Change the Weather History Date:

Wednesday, February 20, 2013

  Actual Average Record
Temperature  
Mean Temperature 26 °F -  
Max Temperature 30 °F 38 °F 57 °F (1977)
Min Temperature 21 °F 13 °F -9 °F (2009)
Degree Days  
Heating Degree Days 40    
Moisture  
Dew Point 21 °F    
Average Humidity 83    
Maximum Humidity 96    
Minimum Humidity 53    
Precipitation  
Precipitation 0.08 in - - ()
Sea Level Pressure  
Sea Level Pressure 29.54 in    
Wind  
Wind Speed 10 mph (South)    
Max Wind Speed 16 mph    
Max Gust Speed 21 mph    
Visibility 5 miles    
Events Fog , Snow    
Averages and records for this station are not official NWS values.
T = Trace of Precipitation, MM = Missing Value Source: NWS Daily Summary

Daily Weather History Graph

Daily Weather History Graph

Search for Another Location

Airport:

Trip Planner

Search our weather history database for the weather conditions in past years. The results will help you decide how hot, cold, wet, or windy it might be!

Date:

Astronomy

Feb. 20, 2013 Rise Set
Actual Time 7:11 AM MST 6:13 PM MST
Civil Twilight 6:45 AM MST 6:40 PM MST
Nautical Twilight 6:14 AM MST 7:10 PM MST
Astronomical Twilight 5:44 AM MST 7:40 PM MST
Moon 1:41 PM MST (2/20) 3:31 AM MST (2/20)
Length of Visible Light 11h 55m
Length of Day
11h 01m
Waxing Gibbous, 76% of the Moon is Illuminated
Feb 20
Waxing Gibbous
Feb 25
Full
Mar 4
Last Quarter
Mar 11
New
Mar 19
First Quarter

Hourly Weather History & Observations

Time (MST) Temp. Windchill Dew Point Humidity Pressure Visibility Wind Dir Wind Speed Gust Speed Precip Events Conditions
12:53 AM 28.0 °F 18.1 °F 12.9 °F 53% 29.47 in 10.0 mi South 11.5 mph - N/A   Overcast
1:53 AM 27.0 °F 18.0 °F 14.0 °F 58% 29.44 in 10.0 mi SSE 9.2 mph - N/A   Clear
2:53 AM 27.0 °F 16.7 °F 18.0 °F 69% 29.43 in 8.0 mi South 11.5 mph - 0.00 in Snow Light Snow
3:31 AM 26.6 °F 15.7 °F 21.2 °F 80% 29.53 in 3.0 mi South 12.7 mph 18.4 mph 0.00 in Snow Light Snow
3:38 AM 24.8 °F 12.9 °F 21.2 °F 86% 29.53 in 2.5 mi SSE 13.8 mph - 0.00 in Snow Light Snow
3:53 AM 25.0 °F 15.5 °F 21.0 °F 85% 29.42 in 5.0 mi SSE 9.2 mph - 0.00 in Snow Light Snow
4:01 AM 24.8 °F 15.3 °F 21.2 °F 86% 29.52 in 8.0 mi SSE 9.2 mph - 0.00 in Snow Light Snow
4:31 AM 24.8 °F 14.0 °F 21.2 °F 86% 29.51 in 2.0 mi South 11.5 mph - 0.00 in Snow Light Snow
4:53 AM 25.0 °F 13.1 °F 21.9 °F 88% 29.42 in 1.2 mi SSE 13.8 mph - 0.00 in Snow Light Snow
5:02 AM 24.8 °F 11.9 °F 23.0 °F 93% 29.52 in 0.8 mi SSE 16.1 mph - 0.00 in Snow Light Snow
5:17 AM 24.8 °F 13.4 °F 23.0 °F 93% 29.52 in 0.5 mi SE 12.7 mph - 0.00 in Fog , Snow Snow
5:42 AM 24.8 °F 14.6 °F 23.0 °F 93% 29.52 in 0.5 mi SE 10.4 mph - 0.02 in Fog , Snow Snow
5:49 AM 24.8 °F 14.6 °F 21.2 °F 86% 29.52 in 0.8 mi SSE 10.4 mph - 0.02 in Snow Light Snow
5:53 AM 24.1 °F 14.4 °F 21.9 °F 91% 29.44 in 1.2 mi SSE 9.2 mph - 0.02 in Snow Light Snow
6:03 AM 24.8 °F 16.9 °F 21.2 °F 86% 29.52 in 1.2 mi SSE 6.9 mph - 0.00 in Snow Light Snow
6:53 AM 24.1 °F 13.7 °F 21.9 °F 91% 29.44 in 1.0 mi ESE 10.4 mph - 0.02 in Snow Light Snow
7:04 AM 24.8 °F 13.4 °F 21.2 °F 86% 29.52 in 1.5 mi SE 12.7 mph - 0.00 in Snow Light Snow
7:14 AM 24.8 °F 13.4 °F 21.2 °F 86% 29.52 in 0.5 mi SE 12.7 mph - 0.01 in Fog , Snow Snow
7:23 AM 23.0 °F 12.4 °F 21.2 °F 93% 29.52 in 0.8 mi SE 10.4 mph - 0.01 in Snow Light Snow
7:49 AM 24.8 °F 14.0 °F 21.2 °F 86% 29.53 in 1.0 mi SE 11.5 mph - 0.02 in Snow Light Snow
7:53 AM 23.0 °F 11.7 °F 21.9 °F 96% 29.48 in 1.8 mi SE 11.5 mph - 0.02 in Snow Light Snow
8:07 AM 23.0 °F 11.7 °F 21.2 °F 93% 29.54 in 1.0 mi SE 11.5 mph - 0.00 in Snow Light Snow
8:09 AM 23.0 °F 12.4 °F 21.2 °F 93% 29.54 in 0.8 mi SE 10.4 mph - 0.00 in Snow Light Snow
8:20 AM 23.0 °F 13.1 °F 21.2 °F 93% 29.54 in 0.5 mi SE 9.2 mph - 0.00 in Fog , Snow Light Snow
8:25 AM 23.0 °F 13.1 °F 21.2 °F 93% 29.55 in 1.5 mi SE 9.2 mph - 0.00 in Snow Light Snow
8:33 AM 23.0 °F 13.1 °F 21.2 °F 93% 29.55 in 2.5 mi SE 9.2 mph - 0.00 in Snow Light Snow
8:41 AM 23.0 °F 13.9 °F 21.2 °F 93% 29.55 in 3.0 mi SE 8.1 mph - 0.00 in Snow Light Snow
8:53 AM 23.0 °F 12.4 °F 21.9 °F 96% 29.49 in 9.0 mi SE 10.4 mph - 0.00 in   Overcast
9:21 AM 23.0 °F 13.9 °F 21.2 °F 93% 29.55 in 10.0 mi SE 8.1 mph - N/A   Overcast
9:53 AM 24.1 °F 17.0 °F 21.0 °F 88% 29.52 in 9.0 mi ESE 5.8 mph - 0.01 in Snow Light Snow
10:05 AM 24.8 °F 19.1 °F 21.2 °F 86% 29.57 in 10.0 mi ESE 4.6 mph - N/A   Scattered Clouds
10:53 AM 27.0 °F 23.0 °F 19.9 °F 75% 29.50 in 10.0 mi East 3.5 mph - N/A   Scattered Clouds
11:21 AM 26.6 °F 18.2 °F 21.2 °F 80% 29.58 in 1.8 mi SSE 8.1 mph - 0.00 in Snow Light Snow
11:40 AM 24.8 °F - 21.2 °F 86% 29.58 in 0.8 mi Calm Calm - 0.00 in Snow Light Snow
11:50 AM 26.6 °F - 19.4 °F 74% 29.58 in 1.5 mi Calm Calm - 0.00 in Snow Light Snow
11:53 AM 28.0 °F - 21.0 °F 75% 29.50 in 2.0 mi Calm Calm - 0.00 in Snow Light Snow
12:01 PM 26.6 °F - 19.4 °F 74% 29.58 in 7.0 mi Calm Calm - 0.00 in Snow Light Snow
12:53 PM 28.0 °F 24.2 °F 18.0 °F 66% 29.49 in 10.0 mi ESE 3.5 mph - 0.00 in   Clear
1:53 PM 27.0 °F 20.5 °F 21.9 °F 81% 29.49 in 10.0 mi WSW 5.8 mph - N/A   Clear
2:11 PM 26.6 °F 18.2 °F 21.2 °F 80% 29.56 in 10.0 mi WSW 8.1 mph - N/A   Mostly Cloudy
2:38 PM 28.4 °F 22.2 °F 19.4 °F 69% 29.56 in 10.0 mi SW 5.8 mph - N/A   Scattered Clouds
2:53 PM 28.0 °F 24.2 °F 19.0 °F 69% 29.48 in 10.0 mi SW 3.5 mph - N/A   Clear
3:53 PM 30.0 °F - 17.1 °F 59% 29.48 in 10.0 mi Calm Calm - N/A   Clear
4:50 PM 28.4 °F 17.0 °F 23.0 °F 80% 29.57 in 1.5 mi NNW 15.0 mph 20.7 mph 0.00 in Snow Light Snow
4:53 PM 28.0 °F 17.5 °F 23.0 °F 81% 29.50 in 1.0 mi NNW 12.7 mph 20.7 mph 0.00 in Snow Light Snow
5:09 PM 28.4 °F 18.5 °F 23.0 °F 80% 29.58 in 1.8 mi NW 11.5 mph - 0.00 in Snow Light Snow
5:19 PM 28.4 °F 18.0 °F 23.0 °F 80% 29.58 in 3.0 mi NNW 12.7 mph - 0.00 in Snow Light Snow
5:22 PM 26.6 °F 15.7 °F 23.0 °F 86% 29.58 in 1.8 mi NW 12.7 mph - 0.00 in Snow Light Snow
5:38 PM 28.4 °F 18.0 °F 21.2 °F 74% 29.58 in 3.0 mi NW 12.7 mph - 0.00 in Snow Light Snow
5:49 PM 28.4 °F 18.5 °F 21.2 °F 74% 29.59 in 10.0 mi NW 11.5 mph - 0.00 in   Overcast
5:53 PM 27.0 °F 18.0 °F 21.9 °F 81% 29.53 in 10.0 mi NW 9.2 mph - 0.00 in   Overcast
6:53 PM 26.1 °F 15.6 °F 21.9 °F 84% 29.57 in 10.0 mi NW 11.5 mph - N/A   Overcast
7:26 PM 26.6 °F 16.2 °F 21.2 °F 80% 29.62 in 9.0 mi NW 11.5 mph - 0.00 in   Overcast
7:37 PM 24.8 °F 14.6 °F 21.2 °F 86% 29.63 in 5.0 mi NW 10.4 mph - 0.00 in Snow Light Snow
7:45 PM 24.8 °F 14.6 °F 21.2 °F 86% 29.63 in 1.8 mi WNW 10.4 mph - 0.00 in Snow Light Snow
7:53 PM 25.0 °F 13.1 °F 21.9 °F 88% 29.60 in 1.2 mi NW 13.8 mph - 0.01 in Snow Light Snow
8:22 PM 24.8 °F 12.4 °F 21.2 °F 86% 29.64 in 3.0 mi WNW 15.0 mph - 0.00 in Snow Light Snow
8:34 PM 24.8 °F 12.4 °F 19.4 °F 80% 29.64 in 10.0 mi WNW 15.0 mph - 0.00 in   Mostly Cloudy
8:53 PM 24.1 °F 13.1 °F 19.9 °F 84% 29.61 in 10.0 mi WNW 11.5 mph - 0.00 in   Mostly Cloudy
9:53 PM 24.1 °F 13.1 °F 19.9 °F 84% 29.64 in 10.0 mi WNW 11.5 mph - N/A   Mostly Cloudy
10:53 PM 23.0 °F 11.7 °F 19.0 °F 85% 29.64 in 10.0 mi WNW 11.5 mph - N/A   Scattered Clouds
11:35 PM 21.2 °F 10.9 °F 19.4 °F 93% 29.69 in 10.0 mi WNW 9.2 mph - N/A   Partly Cloudy
11:53 PM 21.9 °F 10.4 °F 19.0 °F 89% 29.65 in 10.0 mi WNW 11.5 mph - N/A   Mostly Cloudy